Retour au catalogue

THOR ABLESTAR DEB

ActifLEO
NORAD 133·DEBRIS·🇺🇸 United States

Lancé Jun 29, 1961 depuis Cape Canaveral Space Force Station

Loading…

Prochains Passages (prochaines 24 heures)

TLE

FraisSource: Space-Track

Époque: Sep 9, 2026, 17:24 UTC

1 00133U 61015T   26252.72551277  .00000369  00000-0  19669-3 0  9995
2 00133  67.1165   4.7101 0044446  68.9814 291.6030 14.23137178345512

Suivez THOR ABLESTAR DEB en temps réel avec AllMySat

Download on the App Store